Weather in 1-Besarang

Uzbekistan     40°34′06″N   71°46′40″E
temp.,
°C
wind,
m/s
gust,
m/s
humid.,
%
clouds,
%
prec.,
mm/h
press.,
hPa
HPBL,
m
17 october, sun
sun1723:00+15ssw11265 0.0 101811
02:00+13wsw11302 0.0 101810
05:00+12sse11330 0.0 101810
08:00+15se00275 0.0 101872
11:00+21nnw11186 0.0 1017705
14:00+24wnw1115100 0.0 10141143
17:00+21wnw2217100 0.0 101312
20:00+18sw1122100 0.0 101411
18 october, mon
mon1823:00+15w1127100 0.0 101511
02:00+15wsw1229100 0.0 101412
05:00+14w1131100 0.0 101411
08:00+15n0128100 0.0 101573
11:00+20nw2120100 0.0 1013642
14:00+23wnw2116100 0.0 1011936
17:00+21nw2219100 0.0 101115
20:00+17e1124100 0.0 101211
19 october, tue
tue1923:00+15se11276 0.0 101311
02:00+14e112813 0.0 101311
05:00+13e1130100 0.0 101410
08:00+16sw112665 0.0 101659
11:00+22wnw21174 0.0 1015700
14:00+25wnw22130 0.0 10121147
17:00+22wnw11175 0.0 101211
20:00+19ese1120100 0.0 101411
20 october, wed
wed2023:00+18ese1122100 0.0 101411
02:00+16ene1124100 0.0 101411
05:00+16sw1125100 0.0 101511
08:00+18ene1123100 0.0 101617
11:00+22ne3317100 0.0 1015501
14:00+25e3314100 0.0 1013927
17:00+22e1118100 0.0 101311
20:00+20sse1121100 0.0 101511
21 october, thu
thu2123:00+20ese3523100 0.0 101466
02:00+17n2228100 0.0 101519
05:00+16ene343798 0.0 101552
08:00+18ese133682 0.0 1016138
11:00+24ene3425100 0.0 10151164
14:00+25nnw2122100 0.0 10132200
17:00+22wsw4628100 0.0 1014168
20:00+19w61127100 0.1 1015555